Location: Haieshausen
(51.8387°N, 9.9720°E)
Time: 03:38:40
(UTC+00:00)

CZ-4B R/B - Pass Details

Date: 14 July 2020
Orbit: 702 x 803 km, 98.9° (Epoch: 10 August)

Event Time Altitude Azimuth Distance (km) Brightness Sun altitude
Rises 02:16:43 0° 12° (NNE) 3,267 8.0 -7.6°
Reaches altitude 10° 02:19:08 10° 6° (N) 2,320 7.0 -7.4°
Maximum altitude 02:24:00 46° 295° (WNW) 1,004 4.0 -6.9°
Drops below altitude 10° 02:28:42 10° 222° (SW) 2,242 5.2 -6.4°
Enters shadow 02:29:10 - 221° (SW) 2,425 5.4 -6.4°
